Regional Weather Roundup
Issued by NWS

Home | Current Version | Previous Version | Text Only | Print | Product List | Glossary Off
Versions: 1 2 3 4 5 6 7 8 9 10 11 12 13 14 15 16 17 18 19 20 21 22 23 24 25 26 27 28 29 30 31 32 33 34 35 36 37 38 39 40 41 42 43 44 45 46 47 48 49 50

000
ASUS45 KBOU 181607
RWRCO

WEATHER ROUNDUP FOR COLORADO
NATIONAL WEATHER SERVICE DENVER/BOULDER CO
900 AM MST WED JAN 18 2017

NOTE: "FAIR" INDICATES FEW OR NO CLOUDS BELOW 12000 FEET WITH NO
SIGNIFICANT WEATHER AND/OR OBSTRUCTIONS TO VISIBILITY.

COZ001>005-013-030-031-181700-
...NORTHWEST COLORADO...

CITY           SKY/WX    TMP DP  RH WIND       PRES   REMARKS
CRAIG          PTSUNNY    2   1  96 CALM      30.16S FOG
HAYDEN         FAIR      12   7  79 E12       30.12S WCI  -2
MEEKER         FAIR      13  10  88 CALM      30.14S
MOUNT WERNER   NOT AVBL
STEAMBOAT SPGS FAIR       8   5  86 CALM      30.13S
WALDEN           N/A    N/A N/A N/A CALM      30.12R VSB 1/4
$$

COZ006>008-011-181700-
...WEST CENTRAL VALLEYS...

CITY           SKY/WX    TMP DP  RH WIND       PRES   REMARKS
GRAND JUNCTION FAIR      31  29  92 W5        30.15R WCI  26
MONTROSE       FAIR      32  23  69 SE9       30.15S WCI  24
EAGLE          CLOUDY    23  19  86 CALM      30.18S
RIFLE          CLOUDY    28  24  85 CALM      30.16R
DELTA          CLOUDY    32  30  90 W3        30.15R
NUCLA          FAIR      28  25  86 N3        30.18R
$$

COZ017>023-064>068-181700-
...SOUTHWEST COLORADO...

CITY           SKY/WX    TMP DP  RH WIND       PRES   REMARKS
DURANGO        PTSUNNY   27  21  78 W5        30.11S WCI  22
CORTEZ         FAIR      30  26  85 NE3       30.14R
PAGOSA SPRINGS CLOUDY    31  29  92 CALM      30.10S
TELLURIDE      FAIR      19  12  74 SE3       30.12S
WOLF CREEK PAS   N/A     14  14 100 SW5       30.12F WCI   6
$$

COZ009-010-012-014-032>034-037-058>063-181700-
...CENTRAL COLORADO...

CITY           SKY/WX    TMP DP  RH WIND       PRES   REMARKS
ASPEN          FAIR      13   6  74 CALM      30.10F
BUENA VISTA    FAIR      11   4  73 CALM      30.07S
COPPER MTN     NOT AVBL
BERTHOUD PASS  NOT AVBL
COTTONWOOD PAS FAIR      30  -6  21 W6        30.04S WCI  24
GUNNISON       CLOUDY    22  15  75 N9        30.14F WCI  12
KREMMLING      CLOUDY    19  16  86 CALM      30.18F
LEADVILLE      FAIR      14   6  70 NE5       30.06F WCI   6
MONARCH PASS     N/A     14  10  85 MISG      30.17S
SALIDA         FAIR      20   9  62 NW13      30.15R WCI   8
SUNLIGHT       FAIR      14  12  92 SE6       30.12R FOG     WCI   5
WILKERSON PASS FAIR      28 -26   8 N9        30.07S WCI  20
$$

COZ069>075-181700-
...SAN LUIS VALLEY/SANGRE DE CRISTO MOUNTAINS...

CITY           SKY/WX    TMP DP  RH WIND       PRES   REMARKS
ALAMOSA        CLOUDY    25  24  96 N6        30.10S WCI  18
LA VETA PASS   CLOUDY    21  18  86 NE33G39   30.01S FOG     WCI   2
SAGUACHE       FAIR      25  18  74 N10       30.10S WCI  15
$$

COZ035-036-038>040-181700-
...NORTHERN COLORADO FRONT RANGE...

CITY           SKY/WX    TMP DP  RH WIND       PRES   REMARKS
DENVER INTL AP FAIR      31  14  49 SW12      29.92F WCI  22
DMNS CITY PARK   N/A     31  10  41 S6G15     29.93F WCI  26
AURORA         MOSUNNY   31  13  47 S12       29.93F WCI  21
FRONT RANGE AP MOSUNNY   36  16  44 SW13      29.93F
ERIE MUNI ARPT FAIR      28  21  76 CALM      29.92F
BOULDER MUN AP FAIR      32  18  55 CALM      29.91F
CENTENNIAL     FAIR      31   9  39 SW5       29.93F WCI  26
BROOMFIELD     MOSUNNY   32  16  51 CALM      29.93F
FORT COLLINS   FAIR      28  19  69 S3        29.93S
LONGMONT       FAIR      30  20  67 CALM      29.94F
$$

COZ041-046-047-076>085-087-088-181700-
...PIKES PEAK/PALMER DIVIDE AND SOUTHERN FOOTHILLS...

CITY           SKY/WX    TMP DP  RH WIND       PRES   REMARKS
COLO. SPRINGS  FAIR      40  17  39 N6        29.93F
A. F. ACADEMY  FAIR      31  15  52 N9        29.93F WCI  23
SCHRIEVER AFB  NOT AVBL
ELLICOTT       FAIR     N/A N/A N/A N3        29.91S
FALCON         FAIR      43   4  20 N5        29.95R
FORT CARSON    SUNNY     36  14  41 NE8       29.93F
LIMON          FAIR      28  22  78 W6        29.93S WCI  22
MONUMENT HILL  FAIR      32  12  43 W7        29.96S WCI  26
TRINIDAD       FAIR      29  19  66 W14       29.94F WCI  18
$$

COZ042>045-048>051-090-091-181700-
...NORTHEAST COLORADO...

CITY           SKY/WX    TMP DP  RH WIND       PRES   REMARKS
GREELEY ARPT   FAIR      30  26  85 CALM      29.94F
AKRON          FAIR      29  19  66 W15       29.91F WCI  18
BURLINGTON     FAIR      30  25  81 NW6       29.93R WCI  24
WRAY           NOT AVBL
STERLING       FAIR      21  19  93 SW8       29.91F WCI  12
HOLYOKE        FAIR      27  21  80 SW3       29.92R
FORT MORGAN    FAIR      23  20  89 W14       29.93F WCI  11
$$

COZ086-089-092>099-181700-
...SOUTHEAST COLORADO...

CITY           SKY/WX    TMP DP  RH WIND       PRES   REMARKS
PUEBLO         FAIR      29  25  85 W6        29.93F WCI  23
LA JUNTA       FAIR      22  18  85 W13       29.93F WCI  10
LAMAR          FOG       21  19  92 SW7       29.97R VSB 1/4 WCI  12
SPRINGFIELD      N/A     33  31  92 W3        29.93S
$$



USA.gov is the U.S. government's official web portal to all federal, state and local government web resources and services.